SCP
-0 -0 -0 -0 -0 -0 -0 -0 -0 -0 -0 -0 -0 0 0 0 0 0 0 -0 -0 -0 -0 -0 -0 -0 -0 -0 -0 -0 0 0 0 0 0 0 0 0 0 0 -0 0 -0
-0 -0 -0 -0 -0 -0 -0 -0 -0 -0 -0 -0 0 0 -0 0 0 0 -0 -0 -0 -0 -0 -0 -0 -0 -0 -0 -0 0 0 0 -0 -0 0 -0 0 0 0 0 0 -0 -0
-0 -0 -0 -0 -0 -0 -0 -0 -0 -0 0 -0 0 -0 -0 0 0 -0 -0 -0 -0 -0 -0 -0 -0 -0 -0 -0 0 0 0 0 0 0 0 0 0 0 0 0 0 0 0
-0 -0 -0 -0 -0 -0 -0 -0 -0 -0 -0 -0 -0 -0 -0 0 0 -0 -0 -0 -0 -0 -0 -0 -0 -0 -0 -0 0 0 0 0 0 0 0 0 0 0 0 0 0 0 0
-0 -0 -0 -0 -0 -0 -0 -0 -0 -0 0 -0 -0 -0 -0 0 -0 -0 0 0 0 0 -0 -0 -0 0 0 0 0 0 0 0 0 0 0 0 0 0 0 0 0 0 0
-0 -0 -0 -0 -0 -0 -0 -0 -0 -0 0 -0 -0 -0 -0 -0 -0 -0 -0 0 0 0 0 0 0 0 0 0 0 0 0 0 0 0 0 0 0 0 0 0 0 0 0
-0 -0 -0 -0 -0 -0 -0 -0 -0 0 0 0 -0 -0 0 -0 -0 -0 -0 0 0 0 0 0 0 0 0 0 0 0 0 0 0 0 0 0 0 0 -0 -0 -0 0 0
-0 -0 -0 -0 -0 -0 -0 -0 -0 0 0 -0 -0 -0 -0 -0 -0 -0 0 0 0 0 0 0 0 0 0 0 0 0 0 0 0 0 0 0 0 0 -0 -0 -0 0 0
-0 -0 -0 -0 -0 -0 -0 -0 -0 -0 -0 -0 0 -0 0 0 -0 -0 0 0 0 0 0 0 0 0 0 0 -0 0 0 0 0 0 0 0 0 0 -0 -0 -0 -0 0
-0 -0 -0 -0 -0 -0 -0 -0 -0 -0 -0 -0 -0 -0 -0 -0 -0 -0 -0 0 0 0 0 0 -0 -0 -0 -0 -0 -0 -0 -0 0 0 0 0 0 0 -0 -0 -0 -0 -0
-0 -0 -0 -0 -0 -0 -0 -0 -0 -0 -0 -0 -0 -0 -0 -0 -0 -0 -0 -0 -0 -0 -0 -0 -0 -0 -0 -0 -0 -0 -0 0 -0 0 0 0 0 0 -0 -0 -0 -0 -0
0 0 0 0 -0 -0 -0 -0 -0 -0 -0 -0 -0 -0 -0 -0 -0 -0 0 -0 -0 -0 -0 -0 -0 -0 -0 0 0 0 0 -0 -0 0 0 0 0 0 -0 -0 -0 0 0
0 0 0 0 0 -0 -0 -0 -0 -0 -0 0 -0 -0 -0 -0 -0 -0 -0 -0 -0 -0 -0 -0 0 -0 -0 -0 -0 -0 0 -0 -0 0 0 0 0 0 -0 -0 0 0 0
0 0 0 0 0 0 0 0 -0 0 -0 0 0 0 0 0 0 0 0 -0 -0 -0 0 0 0 0 -0 -0 -0 -0 0 0 0 0 0 0 0 0 0 0 0 0 0
-0 0 0 0 0 0 0 0 0 0 -0 -0 -0 0 -0 0 -0 -0 -0 -0 0 0 -0 -0 0 -0 0 0 0 0 0 0 0 0 0 0 0 0 0 0 0 0 0
-0 -0 -0 0 0 0 0 0 -0 -0 -0 -0 -0 -0 -0 -0 -0 0 0 0 0 0 0 0 0 0 0 0 0 0 0 0 0 0 0 1 1 0 0 0 0 0 0
-0 -0 -0 0 0 0 0 0 0 0 -0 -0 0 -0 -0 0 0 0 0 0 0 0 0 0 0 0 0 0 0 0 0 0 0 0 1 1 1 1 0 0 0 0 0
-0 -0 -0 -0 -0 -0 0 -0 0 0 0 0 0 0 0 0 0 0 0 0 0 0 0 0 0 0 0 0 0 0 0 0 0 0 0 1 1 1 0 0 0 0 0
-0 -0 -0 -0 -0 -0 0 0 0 0 0 0 0 0 0 0 0 0 0 0 0 0 0 0 0 0 0 0 0 1 0 0 0 0 0 1 1 1 0 0 0 0 0
-0 -0 0 0 -0 0 0 0 0 0 0 0 0 0 0 0 0 0 0 0 0 0 0 0 1 1 1 2 1 0 0 0 0 0 0 0 0 0 0 0 0 0 0
0 0 0 0 0 0 0 0 0 0 1 0 0 -0 0 0 0 0 0 0 1 1 1 1 1 1 2 2 1 0 0 0 0 0 0 0 0 0 0 0 0 0 0
0 0 0 0 0 0 0 0 0 0 0 1 0 1 1 0 0 0 1 1 2 1 2 2 2 2 2 2 2 1 1 0 0 0 0 0 0 0 0 0 0 0 0
0 0 0 0 0 0 0 0 0 0 0 0 0 0 0 0 1 2 1 1 1 1 1 1 1 1 1 2 2 2 1 0 0 0 0 0 0 0 0 0 0 0 0
0 0 0 0 0 0 0 0 0 0 0 0 0 0 0 0 0 0 0 0 0 0 1 1 1 1 2 2 2 0 0 0 0 0 0 0 0 0 0 0 0 0 0
0 0 0 0 0 0 0 0 0 0 0 0 0 0 0 0 0 0 0 0 0 0 0 0 0 1 1 2 3 0 0 0 0 0 0 0 0 0 0 0 0 0 0
0 0 0 0 0 0 0 0 0 0 0 0 0 0 0 0 0 0 0 0 0 0 0 0 1 1 1 1 2 1 0 0 0 0 0 0 0 0 0 0 0 0 0
Wind_Speed_500mb
45 42 42 35 26 21 20 22 25 25 27 28 30 29 29 30 32 34 36 36 36 39 39 40 40 37 35 35 35 37 38 39 38 38 38 38 38 37 36 34 34 26 28
47 46 43 37 29 23 21 22 25 26 28 29 31 31 32 33 34 36 36 36 36 37 36 33 31 29 30 29 31 32 33 34 35 35 34 35 34 33 33 31 31 26 28
45 47 42 36 30 24 23 24 25 26 29 31 31 32 34 34 35 34 34 35 36 34 32 28 27 27 27 27 26 27 28 28 29 29 28 26 25 27 27 28 27 26 25
44 44 42 35 29 24 25 26 26 27 30 30 30 31 32 32 32 32 31 30 29 27 25 23 22 21 21 20 19 20 20 20 20 21 21 21 20 21 22 22 22 22 22
44 41 39 34 29 26 26 27 28 29 30 30 29 30 31 31 30 29 28 26 23 20 20 18 16 14 15 14 14 14 14 17 17 16 14 14 15 14 17 16 16 15 15
40 37 35 31 28 26 27 29 29 30 31 31 30 29 30 30 30 29 26 22 20 16 15 14 12 10 9 8 9 10 11 13 14 12 10 9 10 10 10 12 13 12 10
37 37 33 29 25 25 28 30 31 31 32 31 30 29 29 28 27 27 24 21 18 16 14 11 8 7 5 6 7 9 11 12 15 13 12 11 14 10 6 7 10 12 11
33 36 34 29 24 25 27 29 31 32 32 31 29 28 27 27 26 24 23 20 16 13 12 9 5 3 1 3 7 10 13 16 18 18 17 17 17 12 12 7 9 12 13
32 33 32 29 27 27 29 30 31 32 31 30 29 28 26 25 24 23 21 18 15 13 11 9 7 4 3 5 7 10 12 16 18 16 15 13 13 14 18 12 12 13 15
30 31 29 28 28 30 31 32 32 33 32 31 30 28 26 24 23 22 20 17 14 12 10 9 8 7 7 6 8 11 12 15 16 12 12 16 17 18 16 16 15 12 13
28 28 28 28 28 29 30 30 32 33 33 31 30 29 27 24 22 20 18 16 16 15 13 13 12 10 9 9 12 15 16 19 19 14 16 20 16 17 16 16 15 10 10
16 23 24 24 23 24 26 28 31 33 34 33 32 29 28 25 22 21 19 18 18 18 18 16 15 14 13 13 15 15 17 14 18 18 19 17 18 16 15 13 15 14 13
16 20 24 26 27 28 29 32 32 33 34 33 32 31 30 27 26 24 22 20 20 21 21 20 19 17 17 16 18 22 20 21 15 18 18 20 15 16 20 18 16 14 13
20 22 20 23 25 28 28 28 31 33 34 35 36 35 34 31 29 27 26 24 23 22 20 22 23 22 21 21 22 18 19 23 21 19 25 30 20 21 21 18 13 13 18
13 23 28 27 27 30 29 30 32 33 35 37 37 36 36 34 33 31 30 26 27 28 25 24 26 28 26 26 26 25 23 23 27 29 30 27 20 23 20 17 13 14 21
11 12 19 28 33 33 36 38 37 37 36 37 37 36 38 37 37 36 34 33 34 32 31 31 31 30 32 32 36 37 29 28 28 34 28 27 22 21 24 17 16 15 22
16 9 17 17 20 30 35 38 46 44 42 41 40 38 40 40 40 39 39 38 35 34 39 39 37 38 39 40 33 33 35 36 37 39 34 26 20 18 21 17 15 16 22
27 13 3 17 26 31 36 38 41 46 47 47 45 43 43 43 42 44 45 43 39 41 42 39 38 40 38 36 37 38 39 38 42 40 35 30 26 17 18 15 12 16 17
42 27 10 6 18 30 32 36 38 41 45 47 47 46 46 43 43 44 45 42 34 35 40 44 45 43 42 42 42 47 45 47 44 41 37 31 32 22 13 15 14 15 16
48 42 31 16 11 18 26 33 39 37 39 45 48 48 47 46 45 45 45 41 38 41 41 41 42 45 46 44 48 52 52 52 50 45 37 28 29 26 21 19 17 16 18
48 43 40 31 23 19 19 25 28 32 31 38 42 49 53 54 52 52 50 50 48 50 49 49 49 53 53 49 49 55 54 56 52 47 36 33 33 32 30 28 23 18 20
52 48 43 38 31 29 26 22 23 23 28 34 39 40 44 48 50 50 52 53 55 56 57 60 61 62 60 59 54 53 42 40 44 40 33 32 37 37 35 33 31 27 23
57 57 53 48 41 35 23 17 16 16 16 28 34 40 37 37 33 29 35 47 59 60 61 66 69 67 66 62 64 43 25 24 20 18 24 32 35 38 39 38 36 35 29
57 53 52 51 50 45 40 36 29 20 21 26 33 40 37 37 39 29 41 86 68 60 63 66 66 67 62 56 63 67 69 58 18 1 23 33 41 44 45 45 44 43 37
55 54 51 51 50 47 43 40 38 34 33 34 36 37 44 56 57 51 67 77 77 73 66 69 64 61 59 57 63 67 60 61 46 39 56 46 42 51 53 52 51 49 45
56 53 51 50 51 53 53 51 47 44 43 45 42 46 50 54 60 75 84 79 77 86 81 72 82 82 74 59 60 70 74 74 75 59 57 58 47 44 60 60 57 55 51
Wind_Direction_500mb
176 181 174 167 166 159 152 153 144 137 132 129 125 122 117 115 116 116 116 116 114 110 108 106 102 96 91 88 82 79 77 75 72 71 69 68 68 67 67 67 69 65 66
172 177 174 166 165 164 158 156 147 142 136 133 127 121 120 121 122 120 117 115 117 114 108 104 100 94 89 84 81 76 71 68 66 63 60 61 60 62 63 65 66 68 65
172 173 169 166 165 165 161 158 150 145 139 133 127 125 125 126 123 120 117 114 110 107 103 100 98 96 91 87 80 74 67 62 60 60 61 57 54 56 60 62 63 63 66
172 170 167 166 165 168 163 160 153 148 140 134 131 129 128 129 126 123 121 118 116 111 106 105 103 96 91 87 77 64 55 50 48 48 45 45 45 48 50 53 59 62 61
170 171 167 167 168 169 166 163 158 152 144 139 137 136 137 135 132 129 126 125 124 119 112 110 108 99 88 77 61 49 37 27 24 23 22 33 35 32 39 38 42 51 56
169 170 168 171 171 169 168 165 164 156 150 145 144 143 142 139 134 130 128 128 128 127 120 114 107 99 85 66 49 32 16 13 14 7 359 349 356 8 19 19 16 20 26
168 170 169 173 177 174 171 169 168 163 158 152 150 147 145 143 138 133 129 128 129 130 124 117 113 102 81 56 37 24 12 354 354 349 336 327 328 300 336 353 355 350 346
173 174 171 171 176 179 177 176 173 170 166 160 155 153 149 144 142 138 136 140 145 146 138 135 135 128 30 14 356 355 348 337 330 323 319 320 309 273 272 285 322 328 330
176 179 174 174 175 179 182 182 179 178 174 169 164 162 157 153 150 148 150 155 163 166 162 171 188 213 271 318 332 334 337 340 333 321 317 310 311 294 269 276 300 310 317
176 182 181 180 183 184 186 187 187 186 184 179 174 174 169 167 166 164 166 172 186 193 200 215 225 245 276 305 322 322 323 333 337 321 324 323 298 302 297 270 298 304 303
183 187 186 189 189 190 194 195 197 195 195 193 190 186 184 185 187 187 191 199 209 219 227 236 239 245 266 286 308 318 321 325 319 308 319 318 302 300 308 265 295 308 300
203 205 202 207 210 206 206 209 208 208 208 205 205 202 203 204 208 212 214 224 232 235 236 234 232 245 270 283 293 305 320 320 324 328 327 325 315 300 306 295 289 309 296
231 228 226 216 217 218 216 217 220 220 222 221 220 219 220 219 224 231 236 238 246 251 236 235 240 260 268 282 292 301 311 316 326 332 342 350 334 305 307 299 290 288 295
292 267 261 256 243 238 235 232 234 234 234 233 234 233 235 235 240 245 250 250 249 251 252 245 249 262 270 284 296 307 312 324 317 322 324 316 334 313 304 298 280 286 308
324 320 299 284 270 260 252 249 250 249 248 246 245 245 248 250 251 253 256 257 250 254 260 261 266 275 282 283 289 296 302 308 312 297 299 306 328 332 316 294 292 302 319
325 293 282 290 296 286 279 264 255 254 256 260 260 256 258 259 260 261 260 259 260 259 260 270 276 273 274 283 291 293 296 300 307 308 297 292 293 309 311 301 307 309 324
26 296 267 280 275 281 277 280 274 265 261 261 263 264 265 265 266 265 266 264 259 255 259 265 270 271 279 283 284 291 290 302 309 311 305 285 270 276 301 299 298 313 321
46 32 294 240 242 240 236 253 269 273 272 268 266 264 263 266 270 271 270 268 267 267 267 271 274 272 282 285 288 287 288 290 302 308 302 291 257 238 282 304 302 304 311
49 48 44 271 263 258 250 247 249 262 266 272 273 270 266 266 267 267 271 272 270 273 270 273 275 281 287 289 288 287 285 291 296 301 299 294 260 240 244 289 275 287 285
51 51 44 24 306 295 287 257 247 249 254 263 271 273 270 270 273 268 268 273 274 275 272 273 276 277 277 283 282 284 287 288 293 293 288 276 252 245 238 257 267 264 279
50 50 43 32 21 337 307 288 266 263 267 263 262 266 270 270 270 271 271 274 273 272 275 276 275 274 275 278 277 278 281 284 288 287 275 262 242 239 238 246 250 249 279
36 38 37 35 32 28 18 354 346 302 285 271 265 264 260 257 263 271 277 281 284 279 275 273 268 268 269 269 268 269 267 275 274 276 264 246 238 234 234 239 246 256 268
25 25 24 21 20 17 9 357 323 300 276 263 262 258 246 248 240 245 258 272 276 267 265 271 268 266 267 268 268 255 263 252 246 258 259 248 240 237 237 243 250 259 266
15 15 17 14 11 11 5 359 353 327 303 296 290 275 259 238 227 221 287 280 269 264 264 265 263 264 264 256 260 254 249 251 232 353 307 272 255 248 247 249 250 257 264
10 11 11 7 3 2 0 356 348 338 322 304 285 270 266 258 251 247 245 255 265 265 261 265 264 263 264 261 258 255 247 248 247 234 244 250 259 258 251 248 249 251 258
12 11 8 6 3 359 356 352 346 337 327 316 306 295 280 267 259 260 263 269 266 266 272 273 265 265 268 270 263 263 260 249 237 229 235 247 245 265 258 248 246 250 252
Wind_Speed_850mb
45 42 42 35 26 21 20 22 25 25 27 28 30 29 29 30 32 34 36 36 36 39 39 40 40 37 35 35 35 37 38 39 38 38 38 38 38 37 36 34 34 26 28
47 46 43 37 29 23 21 22 25 26 28 29 31 31 32 33 34 36 36 36 36 37 36 33 31 29 30 29 31 32 33 34 35 35 34 35 34 33 33 31 31 26 28
45 47 42 36 30 24 23 24 25 26 29 31 31 32 34 34 35 34 34 35 36 34 32 28 27 27 27 27 26 27 28 28 29 29 28 26 25 27 27 28 27 26 25
44 44 42 35 29 24 25 26 26 27 30 30 30 31 32 32 32 32 31 30 29 27 25 23 22 21 21 20 19 20 20 20 20 21 21 21 20 21 22 22 22 22 22
44 41 39 34 29 26 26 27 28 29 30 30 29 30 31 31 30 29 28 26 23 20 20 18 16 14 15 14 14 14 14 17 17 16 14 14 15 14 17 16 16 15 15
40 37 35 31 28 26 27 29 29 30 31 31 30 29 30 30 30 29 26 22 20 16 15 14 12 10 9 8 9 10 11 13 14 12 10 9 10 10 10 12 13 12 10
37 37 33 29 25 25 28 30 31 31 32 31 30 29 29 28 27 27 24 21 18 16 14 11 8 7 5 6 7 9 11 12 15 13 12 11 14 10 6 7 10 12 11
33 36 34 29 24 25 27 29 31 32 32 31 29 28 27 27 26 24 23 20 16 13 12 9 5 3 1 3 7 10 13 16 18 18 17 17 17 12 12 7 9 12 13
32 33 32 29 27 27 29 30 31 32 31 30 29 28 26 25 24 23 21 18 15 13 11 9 7 4 3 5 7 10 12 16 18 16 15 13 13 14 18 12 12 13 15
30 31 29 28 28 30 31 32 32 33 32 31 30 28 26 24 23 22 20 17 14 12 10 9 8 7 7 6 8 11 12 15 16 12 12 16 17 18 16 16 15 12 13
28 28 28 28 28 29 30 30 32 33 33 31 30 29 27 24 22 20 18 16 16 15 13 13 12 10 9 9 12 15 16 19 19 14 16 20 16 17 16 16 15 10 10
16 23 24 24 23 24 26 28 31 33 34 33 32 29 28 25 22 21 19 18 18 18 18 16 15 14 13 13 15 15 17 14 18 18 19 17 18 16 15 13 15 14 13
16 20 24 26 27 28 29 32 32 33 34 33 32 31 30 27 26 24 22 20 20 21 21 20 19 17 17 16 18 22 20 21 15 18 18 20 15 16 20 18 16 14 13
20 22 20 23 25 28 28 28 31 33 34 35 36 35 34 31 29 27 26 24 23 22 20 22 23 22 21 21 22 18 19 23 21 19 25 30 20 21 21 18 13 13 18
13 23 28 27 27 30 29 30 32 33 35 37 37 36 36 34 33 31 30 26 27 28 25 24 26 28 26 26 26 25 23 23 27 29 30 27 20 23 20 17 13 14 21
11 12 19 28 33 33 36 38 37 37 36 37 37 36 38 37 37 36 34 33 34 32 31 31 31 30 32 32 36 37 29 28 28 34 28 27 22 21 24 17 16 15 22
16 9 17 17 20 30 35 38 46 44 42 41 40 38 40 40 40 39 39 38 35 34 39 39 37 38 39 40 33 33 35 36 37 39 34 26 20 18 21 17 15 16 22
27 13 3 17 26 31 36 38 41 46 47 47 45 43 43 43 42 44 45 43 39 41 42 39 38 40 38 36 37 38 39 38 42 40 35 30 26 17 18 15 12 16 17
42 27 10 6 18 30 32 36 38 41 45 47 47 46 46 43 43 44 45 42 34 35 40 44 45 43 42 42 42 47 45 47 44 41 37 31 32 22 13 15 14 15 16
48 42 31 16 11 18 26 33 39 37 39 45 48 48 47 46 45 45 45 41 38 41 41 41 42 45 46 44 48 52 52 52 50 45 37 28 29 26 21 19 17 16 18
48 43 40 31 23 19 19 25 28 32 31 38 42 49 53 54 52 52 50 50 48 50 49 49 49 53 53 49 49 55 54 56 52 47 36 33 33 32 30 28 23 18 20
52 48 43 38 31 29 26 22 23 23 28 34 39 40 44 48 50 50 52 53 55 56 57 60 61 62 60 59 54 53 42 40 44 40 33 32 37 37 35 33 31 27 23
57 57 53 48 41 35 23 17 16 16 16 28 34 40 37 37 33 29 35 47 59 60 61 66 69 67 66 62 64 43 25 24 20 18 24 32 35 38 39 38 36 35 29
57 53 52 51 50 45 40 36 29 20 21 26 33 40 37 37 39 29 41 86 68 60 63 66 66 67 62 56 63 67 69 58 18 1 23 33 41 44 45 45 44 43 37
55 54 51 51 50 47 43 40 38 34 33 34 36 37 44 56 57 51 67 77 77 73 66 69 64 61 59 57 63 67 60 61 46 39 56 46 42 51 53 52 51 49 45
56 53 51 50 51 53 53 51 47 44 43 45 42 46 50 54 60 75 84 79 77 86 81 72 82 82 74 59 60 70 74 74 75 59 57 58 47 44 60 60 57 55 51
Wind_Direction_850mb
176 181 174 167 166 159 152 153 144 137 132 129 125 122 117 115 116 116 116 116 114 110 108 106 102 96 91 88 82 79 77 75 72 71 69 68 68 67 67 67 69 65 66
172 177 174 166 165 164 158 156 147 142 136 133 127 121 120 121 122 120 117 115 117 114 108 104 100 94 89 84 81 76 71 68 66 63 60 61 60 62 63 65 66 68 65
172 173 169 166 165 165 161 158 150 145 139 133 127 125 125 126 123 120 117 114 110 107 103 100 98 96 91 87 80 74 67 62 60 60 61 57 54 56 60 62 63 63 66
172 170 167 166 165 168 163 160 153 148 140 134 131 129 128 129 126 123 121 118 116 111 106 105 103 96 91 87 77 64 55 50 48 48 45 45 45 48 50 53 59 62 61
170 171 167 167 168 169 166 163 158 152 144 139 137 136 137 135 132 129 126 125 124 119 112 110 108 99 88 77 61 49 37 27 24 23 22 33 35 32 39 38 42 51 56
169 170 168 171 171 169 168 165 164 156 150 145 144 143 142 139 134 130 128 128 128 127 120 114 107 99 85 66 49 32 16 13 14 7 359 349 356 8 19 19 16 20 26
168 170 169 173 177 174 171 169 168 163 158 152 150 147 145 143 138 133 129 128 129 130 124 117 113 102 81 56 37 24 12 354 354 349 336 327 328 300 336 353 355 350 346
173 174 171 171 176 179 177 176 173 170 166 160 155 153 149 144 142 138 136 140 145 146 138 135 135 128 30 14 356 355 348 337 330 323 319 320 309 273 272 285 322 328 330
176 179 174 174 175 179 182 182 179 178 174 169 164 162 157 153 150 148 150 155 163 166 162 171 188 213 271 318 332 334 337 340 333 321 317 310 311 294 269 276 300 310 317
176 182 181 180 183 184 186 187 187 186 184 179 174 174 169 167 166 164 166 172 186 193 200 215 225 245 276 305 322 322 323 333 337 321 324 323 298 302 297 270 298 304 303
183 187 186 189 189 190 194 195 197 195 195 193 190 186 184 185 187 187 191 199 209 219 227 236 239 245 266 286 308 318 321 325 319 308 319 318 302 300 308 265 295 308 300
203 205 202 207 210 206 206 209 208 208 208 205 205 202 203 204 208 212 214 224 232 235 236 234 232 245 270 283 293 305 320 320 324 328 327 325 315 300 306 295 289 309 296
231 228 226 216 217 218 216 217 220 220 222 221 220 219 220 219 224 231 236 238 246 251 236 235 240 260 268 282 292 301 311 316 326 332 342 350 334 305 307 299 290 288 295
292 267 261 256 243 238 235 232 234 234 234 233 234 233 235 235 240 245 250 250 249 251 252 245 249 262 270 284 296 307 312 324 317 322 324 316 334 313 304 298 280 286 308
324 320 299 284 270 260 252 249 250 249 248 246 245 245 248 250 251 253 256 257 250 254 260 261 266 275 282 283 289 296 302 308 312 297 299 306 328 332 316 294 292 302 319
325 293 282 290 296 286 279 264 255 254 256 260 260 256 258 259 260 261 260 259 260 259 260 270 276 273 274 283 291 293 296 300 307 308 297 292 293 309 311 301 307 309 324
26 296 267 280 275 281 277 280 274 265 261 261 263 264 265 265 266 265 266 264 259 255 259 265 270 271 279 283 284 291 290 302 309 311 305 285 270 276 301 299 298 313 321
46 32 294 240 242 240 236 253 269 273 272 268 266 264 263 266 270 271 270 268 267 267 267 271 274 272 282 285 288 287 288 290 302 308 302 291 257 238 282 304 302 304 311
49 48 44 271 263 258 250 247 249 262 266 272 273 270 266 266 267 267 271 272 270 273 270 273 275 281 287 289 288 287 285 291 296 301 299 294 260 240 244 289 275 287 285
51 51 44 24 306 295 287 257 247 249 254 263 271 273 270 270 273 268 268 273 274 275 272 273 276 277 277 283 282 284 287 288 293 293 288 276 252 245 238 257 267 264 279
50 50 43 32 21 337 307 288 266 263 267 263 262 266 270 270 270 271 271 274 273 272 275 276 275 274 275 278 277 278 281 284 288 287 275 262 242 239 238 246 250 249 279
36 38 37 35 32 28 18 354 346 302 285 271 265 264 260 257 263 271 277 281 284 279 275 273 268 268 269 269 268 269 267 275 274 276 264 246 238 234 234 239 246 256 268
25 25 24 21 20 17 9 357 323 300 276 263 262 258 246 248 240 245 258 272 276 267 265 271 268 266 267 268 268 255 263 252 246 258 259 248 240 237 237 243 250 259 266
15 15 17 14 11 11 5 359 353 327 303 296 290 275 259 238 227 221 287 280 269 264 264 265 263 264 264 256 260 254 249 251 232 353 307 272 255 248 247 249 250 257 264
10 11 11 7 3 2 0 356 348 338 322 304 285 270 266 258 251 247 245 255 265 265 261 265 264 263 264 261 258 255 247 248 247 234 244 250 259 258 251 248 249 251 258
12 11 8 6 3 359 356 352 346 337 327 316 306 295 280 267 259 260 263 269 266 266 272 273 265 265 268 270 263 263 260 249 237 229 235 247 245 265 258 248 246 250 252